Glencoe, MN

2:32 PM CDT on September 20, 2017 (GMT -0500)
Glencoe Municipal

Weather History for KGYL - November, 2013

Change the Weather History Date:

Monday, November 11, 2013

  Actual Average (KHCD) Record (KHCD)
Temperature  
Mean Temperature 26 °F -  
Max Temperature 37 °F 38 °F 69 °F (2005)
Min Temperature 14 °F 24 °F -3 °F (1986)
Degree Days  
Heating Degree Days 39    
Moisture  
Dew Point 13 °F    
Average Humidity 63    
Maximum Humidity 82    
Minimum Humidity 48    
Precipitation  
Precipitation 0.00 in - - ()
Sea Level Pressure  
Sea Level Pressure 30.45 in    
Wind  
Wind Speed 12 mph (NNW)    
Max Wind Speed 17 mph    
Max Gust Speed 25 mph    
Visibility 10 miles    
Events Snow    
Averages and records for this station are not official NWS values.
T = Trace of Precipitation, MM = Missing Value Source: NWS Daily Summary

Daily Weather History Graph

Daily Weather History Graph

Search for Another Location

Airport or City:

Trip Planner

Search our weather history database for the weather conditions in past years. The results will help you decide how hot, cold, wet, or windy it might be!

Date:

Astronomy

Nov. 11, 2013 Rise Set
Actual Time 7:08 AM CST 4:51 PM CST
Civil Twilight 6:36 AM CST 5:23 PM CST
Nautical Twilight 6:01 AM CST 5:58 PM CST
Astronomical Twilight 5:27 AM CST 6:32 PM CST
Moon 1:46 PM CST (11/11) 12:39 AM CST (11/11)
Length of Visible Light 10h 46m
Length of Day
9h 43m
Waxing Gibbous, 66% of the Moon is Illuminated
Nov 11
Waxing Gibbous
Nov 17
Full
Nov 25
Last Quarter
Dec 2
New
Dec 9
First Quarter

Hourly Weather History & Observations

Time (CST) Temp. Windchill Dew Point Humidity Pressure Visibility Wind Dir Wind Speed Gust Speed Precip Events Conditions
12:13 AM 37.0 °F 31.0 °F 30.9 °F 79% 30.12 in 10.0 mi NW 8.1 mph - N/A   Overcast
12:33 AM 37.0 °F 29.8 °F 30.2 °F 76% 30.13 in 10.0 mi NNW 10.4 mph 16.1 mph N/A   Overcast
12:53 AM 36.7 °F 29.4 °F 29.7 °F 76% 30.13 in 10.0 mi NNW 10.4 mph - N/A   Overcast
1:13 AM 36.5 °F 28.7 °F 29.7 °F 76% 30.14 in 10.0 mi NNW 11.5 mph 17.3 mph N/A   Overcast
1:33 AM 36.0 °F 29.0 °F 29.8 °F 78% 30.14 in 10.0 mi NNW 9.2 mph - N/A Snow Light Snow
1:53 AM 35.6 °F 28.6 °F 29.8 °F 80% 30.15 in 10.0 mi NNW 9.2 mph 16.1 mph N/A Snow Light Snow
2:13 AM 35.1 °F 27.4 °F 30.2 °F 82% 30.15 in 4.0 mi NNW 10.4 mph 17.3 mph N/A Snow Light Snow
2:33 AM 32.5 °F 22.7 °F 27.3 °F 81% 30.17 in 4.0 mi NNW 13.8 mph 25.3 mph N/A Snow Light Snow
2:53 AM 32.4 °F 21.3 °F 24.8 °F 74% 30.19 in 10.0 mi NNW 17.3 mph 24.2 mph N/A   Overcast
3:13 AM 31.6 °F 23.1 °F 24.6 °F 75% 30.19 in 5.0 mi NNW 10.4 mph 19.6 mph N/A Snow Light Snow
3:33 AM 31.1 °F 21.9 °F 24.4 °F 76% 30.21 in 5.0 mi NNW 11.5 mph 20.7 mph N/A Snow Light Snow
3:53 AM 30.7 °F 19.6 °F 23.7 °F 75% 30.22 in 7.0 mi NNW 16.1 mph 21.9 mph N/A Snow Light Snow
4:13 AM 30.0 °F 19.1 °F 21.7 °F 71% 30.22 in 10.0 mi NNW 15.0 mph 21.9 mph N/A   Overcast
4:33 AM 29.1 °F 17.9 °F 15.1 °F 56% 30.24 in 10.0 mi North 15.0 mph 20.7 mph N/A   Overcast
4:53 AM 28.4 °F 18.5 °F 13.5 °F 54% 30.26 in 10.0 mi North 11.5 mph 21.9 mph N/A   Overcast
5:13 AM 28.0 °F 18.1 °F 14.0 °F 56% 30.27 in 10.0 mi North 11.5 mph 17.3 mph N/A   Overcast
5:33 AM 27.9 °F 16.3 °F 15.8 °F 61% 30.28 in 10.0 mi NNW 15.0 mph 19.6 mph N/A   Overcast
5:53 AM 27.1 °F 16.9 °F 15.3 °F 61% 30.29 in 10.0 mi NNW 11.5 mph 19.6 mph N/A   Overcast
6:13 AM 26.2 °F 14.2 °F 13.5 °F 59% 30.29 in 10.0 mi NNW 15.0 mph 20.7 mph N/A   Overcast
6:33 AM 25.7 °F 13.1 °F 13.6 °F 60% 30.31 in 10.0 mi NNW 16.1 mph - N/A   Overcast
6:53 AM 25.2 °F 12.4 °F 13.8 °F 62% 30.33 in 10.0 mi NW 16.1 mph 20.7 mph N/A   Overcast
7:13 AM 24.4 °F 13.0 °F 14.0 °F 65% 30.35 in 10.0 mi NNW 12.7 mph 21.9 mph N/A   Overcast
7:33 AM 23.9 °F 12.9 °F 13.6 °F 65% 30.36 in 10.0 mi NNW 11.5 mph 21.9 mph N/A   Overcast
7:53 AM 23.7 °F 10.5 °F 13.5 °F 65% 30.37 in 10.0 mi NNW 16.1 mph 19.6 mph N/A   Overcast
8:13 AM 23.4 °F 10.6 °F 13.3 °F 65% 30.39 in 10.0 mi NNW 15.0 mph 20.7 mph N/A   Overcast
8:33 AM 23.0 °F 9.6 °F 12.9 °F 65% 30.40 in 10.0 mi NNW 16.1 mph - N/A   Mostly Cloudy
8:53 AM 22.5 °F 8.9 °F 12.9 °F 67% 30.41 in 10.0 mi NNW 16.1 mph 20.7 mph N/A   Scattered Clouds
9:13 AM 22.3 °F 10.2 °F 12.4 °F 66% 30.42 in 10.0 mi NNW 12.7 mph 20.7 mph N/A   Scattered Clouds
9:33 AM 22.3 °F 8.7 °F 12.4 °F 66% 30.43 in 10.0 mi NNW 16.1 mph 21.9 mph N/A   Mostly Cloudy
9:53 AM 22.1 °F 8.9 °F 12.2 °F 66% 30.43 in 10.0 mi NNW 15.0 mph 18.4 mph N/A   Mostly Cloudy
10:13 AM 22.1 °F 8.5 °F 11.7 °F 64% 30.44 in 10.0 mi NNW 16.1 mph - N/A   Mostly Cloudy
10:33 AM 22.1 °F 8.0 °F 11.1 °F 63% 30.45 in 10.0 mi NNW 17.3 mph 23.0 mph N/A   Mostly Cloudy
10:53 AM 22.8 °F 9.9 °F 11.1 °F 61% 30.46 in 10.0 mi NNW 15.0 mph 21.9 mph N/A   Mostly Cloudy
11:13 AM 23.4 °F 10.1 °F 11.5 °F 60% 30.47 in 10.0 mi NNW 16.1 mph 20.7 mph N/A   Overcast
11:33 AM 23.4 °F 10.1 °F 11.1 °F 60% 30.47 in 10.0 mi North 16.1 mph 21.9 mph N/A   Mostly Cloudy
11:53 AM 22.6 °F 9.6 °F 10.2 °F 59% 30.48 in 10.0 mi NNW 15.0 mph 21.9 mph N/A   Mostly Cloudy
12:13 PM 23.5 °F 11.8 °F 10.0 °F 56% 30.48 in 10.0 mi NNW 12.7 mph 21.9 mph N/A   Mostly Cloudy
12:33 PM 24.3 °F 11.2 °F 10.6 °F 56% 30.48 in 10.0 mi NNW 16.1 mph 23.0 mph N/A   Scattered Clouds
12:52 PM 24.4 °F 13.0 °F 10.4 °F 55% 30.48 in 10.0 mi NNW 12.7 mph 19.6 mph N/A   Scattered Clouds
1:13 PM 25.3 °F 13.1 °F 10.8 °F 54% 30.48 in 10.0 mi NNW 15.0 mph - N/A   Scattered Clouds
1:33 PM 25.7 °F 13.5 °F 10.4 °F 52% 30.49 in 10.0 mi NNW 15.0 mph 21.9 mph N/A   Mostly Cloudy
1:53 PM 25.7 °F 13.5 °F 9.7 °F 51% 30.49 in 10.0 mi NNW 15.0 mph 20.7 mph N/A   Scattered Clouds
2:13 PM 26.4 °F 14.5 °F 9.7 °F 49% 30.50 in 10.0 mi NNW 15.0 mph 21.9 mph N/A   Mostly Cloudy
2:33 PM 25.3 °F 14.1 °F 9.5 °F 51% 30.50 in 10.0 mi NNW 12.7 mph 19.6 mph N/A   Scattered Clouds
2:53 PM 25.2 °F 13.3 °F 9.1 °F 51% 30.51 in 10.0 mi NNW 13.8 mph - N/A   Scattered Clouds
3:13 PM 25.3 °F 13.6 °F 9.1 °F 50% 30.52 in 10.0 mi NW 13.8 mph - N/A   Scattered Clouds
3:33 PM 24.8 °F 12.9 °F 7.5 °F 48% 30.52 in 10.0 mi NNW 13.8 mph 19.6 mph N/A   Scattered Clouds
3:53 PM 24.4 °F 13.0 °F 7.3 °F 48% 30.53 in 10.0 mi NNW 12.7 mph - N/A   Clear
4:13 PM 24.1 °F 12.0 °F 8.1 °F 51% 30.55 in 10.0 mi NW 13.8 mph 17.3 mph N/A   Clear
4:33 PM 23.5 °F 14.5 °F 8.6 °F 53% 30.56 in 10.0 mi NNW 8.1 mph 18.4 mph N/A   Clear
4:53 PM 22.6 °F 11.9 °F 7.9 °F 53% 30.56 in 10.0 mi NW 10.4 mph - N/A   Clear
5:13 PM 22.1 °F 12.0 °F 8.6 °F 56% 30.57 in 10.0 mi NW 9.2 mph - N/A   Clear
5:33 PM 21.7 °F 12.3 °F 9.0 °F 58% 30.58 in 10.0 mi NW 8.1 mph - N/A   Clear
5:53 PM 21.2 °F 10.1 °F 8.8 °F 59% 30.59 in 10.0 mi NW 10.4 mph 16.1 mph N/A   Clear
6:13 PM 20.8 °F 9.7 °F 8.6 °F 59% 30.60 in 10.0 mi NW 10.4 mph - N/A   Clear
6:33 PM 20.3 °F 9.0 °F 7.9 °F 59% 30.61 in 10.0 mi NW 10.4 mph 18.4 mph N/A   Clear
6:53 PM 19.9 °F 8.6 °F 8.1 °F 60% 30.62 in 10.0 mi NW 10.4 mph - N/A   Clear
7:13 PM 19.4 °F 7.2 °F 7.7 °F 60% 30.63 in 10.0 mi NW 11.5 mph - N/A   Clear
7:33 PM 19.2 °F 6.4 °F 7.5 °F 60% 30.64 in 10.0 mi NNW 12.7 mph - N/A   Clear
7:53 PM 18.7 °F 6.3 °F 7.3 °F 61% 30.65 in 10.0 mi NNW 11.5 mph 17.3 mph N/A   Clear
8:13 PM 18.3 °F 7.3 °F 7.2 °F 62% 30.66 in 10.0 mi NNW 9.2 mph 16.1 mph N/A   Clear
8:33 PM 18.0 °F 6.1 °F 6.8 °F 62% 30.67 in 10.0 mi NNW 10.4 mph - N/A   Clear
8:53 PM 17.4 °F 6.2 °F 7.2 °F 64% 30.67 in 10.0 mi NW 9.2 mph - N/A   Clear
9:13 PM 17.4 °F 6.2 °F 6.8 °F 63% 30.68 in 10.0 mi NNW 9.2 mph - N/A   Clear
9:33 PM 16.9 °F 8.5 °F 6.8 °F 65% 30.69 in 10.0 mi NW 5.8 mph - N/A   Clear
9:53 PM 16.7 °F 7.2 °F 6.8 °F 65% 30.69 in 10.0 mi NW 6.9 mph - N/A   Clear
10:13 PM 16.3 °F 7.8 °F 7.2 °F 67% 30.70 in 10.0 mi WNW 5.8 mph - N/A   Clear
10:33 PM 16.2 °F 5.5 °F 7.2 °F 68% 30.71 in 10.0 mi NW 8.1 mph - N/A   Clear
10:53 PM 15.8 °F 7.2 °F 7.5 °F 70% 30.71 in 10.0 mi NW 5.8 mph - N/A   Clear
11:13 PM 15.4 °F 6.8 °F 7.5 °F 71% 30.71 in 10.0 mi WNW 5.8 mph - N/A   Clear
11:33 PM 15.1 °F 6.4 °F 7.3 °F 71% 30.73 in 10.0 mi NW 5.8 mph - N/A   Clear
11:53 PM 14.9 °F 7.5 °F 7.2 °F 71% 30.73 in 10.0 mi WNW 4.6 mph - N/A   Clear